| time (UTC) | temp C | wind direction | speed KPH | gust KPH | rain 1hr cm | rain 24hr cm | rain mn cm | humidity % | barometer mb |
| 20260510153559 | 21 | 299 | 11.3 | 14.5 | 0.00 | 0.00 | 0.00 | 61 | 1012.4 |
| 20260510152554 | 21 | 301 | 9.7 | 14.5 | 0.00 | 0.00 | 0.00 | 63 | 1012.6 |
| 20260510151509 | 21 | 243 | 6.4 | 11.3 | 0.00 | 0.00 | 0.00 | 66 | 1012.5 |
| 20260510150439 | 20 | 319 | 8.0 | 9.7 | 0.00 | 0.00 | 0.00 | 71 | 1012.5 |
| 20260510145411 | 20 | 213 | 3.2 | 9.7 | 0.00 | 0.00 | 0.00 | 74 | 1012.7 |
| 20260510144405 | 19 | 237 | 6.4 | 6.4 | 0.00 | 0.00 | 0.00 | 76 | 1012.6 |
| 20260510143316 | 19 | 0.0 | 3.2 | 0.00 | 0.00 | 0.00 | 76 | 1012.7 | |
| 20260510142251 | 19 | 203 | 1.6 | 9.7 | 0.00 | 0.00 | 0.00 | 75 | 1012.5 |
| 20260510141222 | 20 | 192 | 4.8 | 6.4 | 0.00 | 0.00 | 0.00 | 75 | 1012.6 |
| 20260510140153 | 18 | 211 | 1.6 | 6.4 | 0.00 | 0.00 | 0.00 | 78 | 1012.4 |
| 20260510135638 | 17 | 142 | 0.0 | 1.6 | 0.00 | 0.00 | 0.00 | 81 | 1012.4 |
| 20260510134629 | 17 | 0.0 | 1.6 | 0.00 | 0.00 | 0.00 | 83 | 1012.5 | |
| 20260510133540 | 17 | 213 | 1.6 | 1.6 | 0.00 | 0.00 | 0.00 | 82 | 1012.6 |
| 20260510132515 | 17 | 199 | 1.6 | 3.2 | 0.00 | 0.00 | 0.00 | 84 | 1012.5 |
| 20260510131446 | 16 | 201 | 1.6 | 3.2 | 0.00 | 0.00 | 0.00 | 85 | 1012.4 |
| 20260510130457 | 16 | 0.0 | 0.0 | 0.00 | 0.00 | 0.00 | 86 | 1012.7 | |
| 20260510125352 | 15 | 0.0 | 0.0 | 0.00 | 0.00 | 0.00 | 93 | 1012.6 | |
| 20260510124321 | 13 | 0.0 | 0.0 | 0.00 | 0.00 | 0.00 | 97 | 1012.6 | |
| 20260510123256 | 13 | 0.0 | 0.0 | 0.00 | 0.00 | 0.00 | 98 | 1012.4 | |
| 20260510122225 | 12 | 0.0 | 0.0 | 0.00 | 0.00 | 0.00 | 98 | 1012.3 | |
| 20260510121217 | 12 | 0.0 | 0.0 | 0.00 | 0.00 | 0.00 | 98 | 1012.2 | |
| 20260510120127 | 12 | 0.0 | 0.0 | 0.00 | 0.00 | 0.00 | 99 | 1011.9 | |
| 20260510115632 | 12 | 0.0 | 3.2 | 0.00 | 0.00 | 0.00 | 99 | 1011.9 | |
| 20260510114546 | 11 | 0.0 | 0.0 | 0.00 | 0.00 | 0.00 | 99 | 1011.6 | |
| 20260510113538 | 11 | 0.0 | 0.0 | 0.00 | 0.00 | 0.00 | 99 | 1012.1 | |
| 20260510112452 | 11 | 0.0 | 0.0 | 0.00 | 0.00 | 0.00 | 99 | 1011.7 | |
| 20260510111422 | 11 | 0.0 | 0.0 | 0.00 | 0.00 | 0.00 | 99 | 1011.4 | |
| 20260510110353 | 11 | 0.0 | 0.0 | 0.00 | 0.00 | 0.00 | 99 | 1011.8 | |
| 20260510105324 | 10 | 0.0 | 1.6 | 0.00 | 0.00 | 0.00 | 99 | 1011.5 | |
| 20260510104259 | 10 | 220 | 1.6 | 3.2 | 0.00 | 0.00 | 0.00 | 99 | 1011.4 |
| 20260510103233 | 10 | 0.0 | 0.0 | 0.00 | 0.00 | 0.00 | 99 | 1011.0 | |
| 20260510102205 | 10 | 212 | 0.0 | 3.2 | 0.00 | 0.00 | 0.00 | 99 | 1011.0 |
| 20260510101140 | 10 | 0.0 | 0.0 | 0.00 | 0.00 | 0.00 | 99 | 1011.0 | |
| 20260510100113 | 10 | 0.0 | 1.6 | 0.00 | 0.00 | 0.00 | 99 | 1011.1 | |
| 20260510095549 | 10 | 0.0 | 0.0 | 0.00 | 0.00 | 0.00 | 99 | 1010.9 | |
| 20260510094540 | 10 | 0.0 | 0.0 | 0.00 | 0.00 | 0.00 | 99 | 1010.9 | |
| 20260510093454 | 10 | 0.0 | 0.0 | 0.00 | 0.00 | 0.00 | 99 | 1010.8 | |
| 20260510092425 | 10 | 0.0 | 0.0 | 0.00 | 0.00 | 0.00 | 99 | 1010.9 | |
| 20260510091356 | 10 | 0.0 | 0.0 | 0.00 | 0.00 | 0.00 | 98 | 1010.8 | |
| 20260510090348 | 10 | 0.0 | 0.0 | 0.00 | 0.00 | 0.00 | 98 | 1010.7 | |
| 20260510085306 | 10 | 260 | 4.8 | 9.7 | 0.00 | 0.00 | 0.00 | 98 | 1011.0 |
| 20260510084235 | 10 | 187 | 0.0 | 6.4 | 0.00 | 0.00 | 0.00 | 98 | 1011.1 |
| 20260510083209 | 9 | 163 | 3.2 | 16.1 | 0.00 | 0.00 | 0.00 | 98 | 1011.1 |
| 20260510082139 | 9 | 212 | 3.2 | 11.3 | 0.00 | 0.00 | 0.00 | 98 | 1010.7 |
| 20260510081629 | 9 | 252 | 4.8 | 4.8 | 0.00 | 0.00 | 0.00 | 98 | 1010.5 |
| 20260510080559 | 9 | 204 | 0.0 | 1.6 | 0.00 | 0.00 | 0.00 | 97 | 1010.6 |
| 20260510075530 | 9 | 246 | 0.0 | 3.2 | 0.00 | 0.00 | 0.00 | 97 | 1010.5 |
| 20260510074502 | 9 | 0.0 | 0.0 | 0.00 | 0.00 | 0.00 | 97 | 1010.2 | |
| 20260510073433 | 9 | 0.0 | 1.6 | 0.00 | 0.00 | 0.00 | 97 | 1010.2 | |
| 20260510072403 | 9 | 0.0 | 4.8 | 0.00 | 0.00 | 0.00 | 96 | 1010.1 | |
| 20260510071338 | 10 | 0.0 | 0.0 | 0.00 | 0.00 | 0.00 | 96 | 1010.2 | |
| 20260510070308 | 10 | 0.0 | 0.0 | 0.00 | 0.00 | 0.00 | 95 | 1010.1 | |
| 20260510065243 | 9 | 0.0 | 0.0 | 0.00 | 0.00 | 0.00 | 93 | 1009.8 | |
| 20260510064233 | 11 | 0.0 | 0.0 | 0.00 | 0.00 | 0.00 | 93 | 1009.6 | |
| 20260510063152 | 10 | 0.0 | 0.0 | 0.00 | 0.00 | 0.00 | 94 | 1009.6 | |
| 20260510062634 | 10 | 0.0 | 0.0 | 0.00 | 0.00 | 0.00 | 93 | 1009.7 | |
| 20260510061609 | 10 | 0.0 | 0.0 | 0.00 | 0.00 | 0.00 | 93 | 1009.8 | |
| 20260510060540 | 10 | 0.0 | 0.0 | 0.00 | 0.00 | 0.00 | 93 | 1009.8 | |
| 20260510055511 | 10 | 0.0 | 0.0 | 0.00 | 0.00 | 0.00 | 93 | 1010.2 | |
| 20260510054448 | 10 | 0.0 | 0.0 | 0.00 | 0.00 | 0.00 | 94 | 1010.1 | |
| 20260510053417 | 10 | 0.0 | 0.0 | 0.00 | 0.00 | 0.00 | 93 | 1010.2 | |
| 20260510052411 | 11 | 0.0 | 0.0 | 0.00 | 0.00 | 0.00 | 92 | 1010.2 | |
| 20260510051318 | 11 | 0.0 | 0.0 | 0.00 | 0.00 | 0.00 | 92 | 1010.2 | |
| 20260510050248 | 10 | 0.0 | 0.0 | 0.00 | 0.00 | 0.00 | 93 | 1010.3 | |
| 20260510045219 | 11 | 0.0 | 0.0 | 0.00 | 0.00 | 0.00 | 92 | 1010.3 | |
| 20260510044719 | 11 | 0.0 | 0.0 | 0.00 | 0.00 | 0.00 | 92 | 1010.3 | |
| 20260510043632 | 11 | 0.0 | 0.0 | 0.00 | 0.00 | 0.00 | 92 | 1010.4 | |
| 20260510042607 | 11 | 0.0 | 0.0 | 0.00 | 0.00 | 0.00 | 92 | 1010.3 | |
| 20260510041546 | 11 | 0.0 | 0.0 | 0.00 | 0.00 | 0.00 | 94 | 1010.5 | |
| 20260510040521 | 10 | 0.0 | 0.0 | 0.00 | 0.00 | 0.00 | 95 | 1010.7 | |
| 20260510035451 | 11 | 0.0 | 0.0 | 0.00 | 0.00 | 0.00 | 95 | 1010.4 | |
| 20260510034422 | 10 | 0.0 | 0.0 | 0.00 | 0.00 | 0.00 | 94 | 1010.3 | |
| 20260510033353 | 10 | 0.0 | 0.0 | 0.00 | 0.00 | 0.00 | 93 | 1010.1 | |
| 20260510032328 | 11 | 0.0 | 0.0 | 0.00 | 0.00 | 0.00 | 92 | 1010.2 | |
| 20260510031258 | 11 | 0.0 | 0.0 | 0.00 | 0.00 | 0.00 | 93 | 1010.1 | |
| 20260510030229 | 11 | 0.0 | 0.0 | 0.00 | 0.00 | 0.00 | 93 | 1010.1 | |
| 20260510025159 | 11 | 0.0 | 0.0 | 0.00 | 0.00 | 0.00 | 94 | 1009.9 | |
| 20260510024645 | 11 | 0.0 | 0.0 | 0.00 | 0.00 | 0.00 | 93 | 1010.2 | |
| 20260510023641 | 11 | 0.0 | 0.0 | 0.00 | 0.00 | 0.00 | 94 | 1010.2 | |
| 20260510022555 | 12 | 0.0 | 0.0 | 0.00 | 0.00 | 0.00 | 93 | 1009.8 | |
| 20260510021526 | 11 | 0.0 | 0.0 | 0.00 | 0.00 | 0.00 | 92 | 1009.9 | |
| 20260510020457 | 12 | 0.0 | 0.0 | 0.00 | 0.00 | 0.00 | 93 | 1009.9 | |
| 20260510015432 | 12 | 0.0 | 0.0 | 0.00 | 0.00 | 0.00 | 93 | 1009.9 | |
| 20260510014403 | 12 | 0.0 | 0.0 | 0.00 | 0.00 | 0.00 | 92 | 1009.8 | |
| 20260510013334 | 12 | 0.0 | 0.0 | 0.00 | 0.00 | 0.00 | 92 | 1009.9 | |
| 20260510012307 | 12 | 0.0 | 0.0 | 0.00 | 0.00 | 0.00 | 92 | 1009.7 | |
| 20260510011240 | 12 | 0.0 | 0.0 | 0.00 | 0.00 | 0.00 | 93 | 1009.6 | |
| 20260510010211 | 12 | 0.0 | 0.0 | 0.00 | 0.00 | 0.00 | 92 | 1009.5 | |
| 20260510005149 | 13 | 0.0 | 0.0 | 0.00 | 0.00 | 0.00 | 92 | 1009.6 | |
| 20260510004124 | 13 | 0.0 | 0.0 | 0.00 | 0.00 | 0.00 | 92 | 1009.4 | |
| 20260510003055 | 13 | 0.0 | 0.0 | 0.00 | 0.00 | 0.00 | 92 | 1009.5 | |
| 20260510002027 | 13 | 0.0 | 0.0 | 0.00 | 0.00 | 0.00 | 89 | 1009.3 | |
| 20260510001004 | 13 | 0.0 | 0.0 | 0.00 | 0.00 | 0.00 | 90 | 1009.3 | |
| 20260509235940 | 13 | 0.0 | 0.0 | 0.00 | 0.00 | 0.00 | 91 | 1009.2 | |
| 20260509234910 | 14 | 0.0 | 0.0 | 0.00 | 0.00 | 0.00 | 90 | 1009.4 | |
| 20260509233842 | 14 | 0.0 | 0.0 | 0.00 | 0.00 | 0.00 | 88 | 1009.3 | |
| 20260509232816 | 13 | 0.0 | 0.0 | 0.00 | 0.00 | 0.00 | 89 | 1009.4 | |
| 20260509231747 | 14 | 0.0 | 0.0 | 0.00 | 0.00 | 0.00 | 86 | 1009.3 | |
| 20260509230718 | 15 | 0.0 | 1.6 | 0.00 | 0.00 | 0.00 | 87 | 1009.3 | |
| 20260509225649 | 15 | 147 | 3.2 | 3.2 | 0.00 | 0.00 | 0.00 | 85 | 1009.1 |
| 20260509224619 | 15 | 0.0 | 0.0 | 0.00 | 0.00 | 0.00 | 88 | 1009.4 | |
| 20260509223550 | 13 | 0.0 | 4.8 | 0.00 | 0.00 | 0.00 | 92 | 1009.3 | |
| 20260509222521 | 13 | 171 | 4.8 | 4.8 | 0.00 | 0.00 | 0.00 | 92 | 1009.5 |
| 20260509221500 | 13 | 184 | 1.6 | 1.6 | 0.00 | 0.00 | 0.00 | 92 | 1009.2 |
| 20260509220432 | 13 | 170 | 3.2 | 6.4 | 0.00 | 0.00 | 0.00 | 91 | 1009.4 |
| 20260509215401 | 13 | 155 | 1.6 | 3.2 | 0.00 | 0.00 | 0.00 | 92 | 1009.3 |
| 20260509214333 | 13 | 136 | 1.6 | 3.2 | 0.00 | 0.00 | 0.00 | 93 | 1009.4 |
| 20260509213308 | 13 | 0.0 | 1.6 | 0.00 | 0.00 | 0.00 | 92 | 1009.4 | |
| 20260509212238 | 13 | 0.0 | 0.0 | 0.00 | 0.00 | 0.00 | 93 | 1009.7 | |
| 20260509211230 | 13 | 0.0 | 0.0 | 0.00 | 0.00 | 0.00 | 93 | 1009.5 | |
| 20260509210144 | 13 | 197 | 1.6 | 1.6 | 0.00 | 0.00 | 0.00 | 93 | 1009.4 |
| 20260509205116 | 13 | 0.0 | 0.0 | 0.00 | 0.00 | 0.00 | 94 | 1009.6 | |
| 20260509204554 | 12 | 221 | 3.2 | 3.2 | 0.00 | 0.00 | 0.00 | 94 | 1009.6 |
| 20260509203525 | 12 | 0.0 | 3.2 | 0.00 | 0.00 | 0.00 | 93 | 1009.6 | |
| 20260509202517 | 12 | 0.0 | 4.8 | 0.00 | 0.00 | 0.00 | 93 | 1009.0 | |
| 20260509201430 | 12 | 302 | 6.4 | 11.3 | 0.00 | 0.00 | 0.00 | 94 | 1009.4 |
| 20260509200401 | 12 | 281 | 6.4 | 9.7 | 0.00 | 0.00 | 0.00 | 94 | 1009.4 |
| 20260509195353 | 12 | 159 | 0.0 | 4.8 | 0.00 | 0.00 | 0.00 | 95 | 1009.5 |
| 20260509194303 | 12 | 32 | 4.8 | 9.7 | 0.00 | 0.00 | 0.00 | 94 | 1009.8 |
| 20260509193314 | 12 | 273 | 9.7 | 11.3 | 0.00 | 0.00 | 0.00 | 94 | 1010.0 |
| 20260509192204 | 12 | 236 | 6.4 | 12.9 | 0.00 | 0.00 | 0.00 | 94 | 1010.1 |
| 20260509191139 | 12 | 232 | 3.2 | 6.4 | 0.00 | 0.00 | 0.00 | 94 | 1010.3 |
| 20260509190713 | 12 | 356 | 1.6 | 9.7 | 0.00 | 0.00 | 0.00 | 94 | 1010.5 |
| 20260509185604 | 12 | 288 | 9.7 | 16.1 | 0.00 | 0.00 | 0.00 | 94 | 1010.4 |
| 20260509184534 | 12 | 300 | 6.4 | 14.5 | 0.00 | 0.00 | 0.00 | 94 | 1010.4 |
| 20260509183525 | 12 | 298 | 4.8 | 6.4 | 0.00 | 0.00 | 0.00 | 94 | 1010.4 |
| 20260509182436 | 12 | 258 | 4.8 | 11.3 | 0.00 | 0.00 | 0.00 | 93 | 1010.8 |
| 20260509181407 | 12 | 270 | 4.8 | 6.4 | 0.00 | 0.00 | 0.00 | 92 | 1010.7 |
| 20260509180337 | 12 | 231 | 4.8 | 11.3 | 0.00 | 0.00 | 0.00 | 90 | 1010.9 |
| 20260509175308 | 12 | 325 | 6.4 | 6.4 | 0.00 | 0.00 | 0.00 | 88 | 1010.9 |
| 20260509174243 | 13 | 324 | 9.7 | 12.9 | 0.00 | 0.00 | 0.00 | 82 | 1010.8 |
| 20260509173234 | 14 | 296 | 8.0 | 9.7 | 0.00 | 0.00 | 0.00 | 79 | 1010.6 |
| 20260509172652 | 14 | 222 | 3.2 | 4.8 | 0.00 | 0.00 | 0.00 | 78 | 1010.5 |
| 20260509171643 | 13 | 189 | 3.2 | 4.8 | 0.00 | 0.00 | 0.00 | 82 | 1010.4 |
| 20260509170554 | 13 | 295 | 6.4 | 9.7 | 0.00 | 0.00 | 0.00 | 84 | 1010.8 |
| 20260509165524 | 14 | 2 | 8.0 | 14.5 | 0.00 | 0.00 | 0.00 | 87 | 1010.6 |
| 20260509164456 | 14 | 215 | 4.8 | 9.7 | 0.00 | 0.00 | 0.00 | 86 | 1010.6 |
| 20260509163425 | 13 | 261 | 3.2 | 9.7 | 0.00 | 0.00 | 0.00 | 86 | 1010.6 |
| 20260509162356 | 14 | 198 | 4.8 | 6.4 | 0.00 | 0.00 | 0.00 | 87 | 1010.8 |
| 20260509161331 | 14 | 221 | 4.8 | 11.3 | 0.00 | 0.00 | 0.00 | 83 | 1011.1 |
| 20260509160301 | 15 | 318 | 9.7 | 12.9 | 0.00 | 0.00 | 0.00 | 81 | 1011.3 |
| 20260509155237 | 15 | 231 | 4.8 | 11.3 | 0.00 | 0.00 | 0.00 | 78 | 1011.4 |
| 20260509154207 | 16 | 204 | 3.2 | 9.7 | 0.00 | 0.00 | 0.00 | 75 | 1011.4 |